Weather in Ölüdeniz Mah.

Turkey     36˚32′57″N   29˚06′54″E
temp.,
°C
wind,
m/s
gust,
m/s
humid.,
%
clouds,
%
prec.,
mm/h
press.,
hPa
HPBL,
m
16 january, sat
sat1600:00+13˚n33720 0.0 1011349
03:00+13˚n336730 0.0 1009304
06:00+13˚nnw2262100 0.0 1008306
09:00+13˚n1157100 0.0 1007269
12:00+14˚s335599 0.0 1007425
15:00+15˚sse5660100 0.0 10041109
18:00+15˚sse797898 2.1 1003836
21:00+15˚wsw797086 8.4 10031214
17 january, sun
sun1700:00+13˚wnw89719 1.8 10051046
03:00+12˚nw777238 1.9 10051003
06:00+11˚nnw557199 0.3 1006879
09:00+11˚nw675978 0.4 10071235
12:00+10˚nw66610 0.0 1009959
15:00+11˚wnw77570 0.0 10081200
18:00+12˚nw109540 0.0 10101586
21:00+11˚nnw89550 0.0 10121163
18 january, mon
mon1800:00+10˚nnw810549 0.0 10141232
03:00+9˚nnw895049 0.0 10151233
06:00+8˚nnw5649100 0.0 1016893
09:00+7˚nne334967 0.0 1016470
12:00+9˚nnw113567 0.0 1017527
15:00+9˚n224183 0.0 1015436
18:00+7˚ene5568100 0.6 1014750
21:00+7˚ne3481100 2.1 1014384
19 january, tue
tue1900:00+8˚nnw446773 0.0 1015631
03:00+8˚nnw446638 0.0 1016551
06:00+7˚n44650 0.0 1016482
09:00+7˚n55610 0.0 1017458
12:00+8˚nnw55480 0.0 1017638
15:00+11˚nw65380 0.0 1015953
18:00+11˚nw66380 0.0 10161010
21:00+8˚nne66460 0.0 1019503
20 january, wed
wed2000:00+7˚n55470 0.0 1020469
03:00+6˚n66470 0.0 1020479
06:00+6˚n67470 0.0 1021488
09:00+6˚n77440 0.0 1023467
12:00+9˚n55300 0.0 1024645
15:00+13˚nnw55280 0.0 10241010
18:00+13˚nnw55310 0.0 1025916
21:00+10˚nne44390 0.0 1027299